Regional Weather Roundup
Issued by NWS

Home | Current Version | Previous Version | Graphics & Text | Print | Product List | Glossary On
Versions: 1 2 3 4 5 6 7 8 9 10 11 12 13 14 15 16 17 18 19 20 21 22 23 24 25 26 27 28 29 30 31 32 33 34 35 36 37 38 39 40 41 42 43 44 45 46 47 48 49 50
000
ASUS45 KSLC 251710
RWRUT

UTAH REGIONAL WEATHER ROUNDUP
NATIONAL WEATHER SERVICE SALT LAKE CITY UT
1100 AM MDT MON SEP 25 2017

UTZ001>011-023>025-251800-

NORTHERN UTAH

CITY           SKY/WX    TMP DP  RH WIND       PRES   REMARKS
BRIGHAM CITY   SUNNY     50  39  67 CALM      30.16S
DUGWAY         MOSUNNY   52  36  53 VRB1      30.14S
HILL AFB       SUNNY     49  40  71 E10       30.15S
LOGAN          CLOUDY    46  44  93 CALM      30.16S
OGDEN          SUNNY     51  39  63 NW5       30.14F
SALT LAKE CITY MOSUNNY   51  39  63 CALM      30.14F
TOOELE VALLEY  SUNNY     52  36  54 SE5       30.15S
WENDOVER       SUNNY     50  38  63 E8        30.15R
HEBER CITY     CLOUDY    43  36  75 CALM      30.15F
WEST JORDAN    SUNNY     50  42  74 CALM      30.15F

$$

UTZ011>015-024>027-251800-

CENTRAL/NORTHEAST UTAH

CITY           SKY/WX    TMP DP  RH WIND       PRES   REMARKS
PROVO AIRPORT  SUNNY     48  39  71 SW7       30.17S
MOAB/CANYONLAN SUNNY     54  32  43 CALM      30.08F
DELTA          SUNNY     45  36  70 CALM      30.15F
PRICE          SUNNY     49  33  54 SE6       30.11S
ROOSEVELT      SUNNY     48  36  61 CALM      30.17S
VERNAL         MOSUNNY   48  38  68 VRB6      30.15S

$$

UTZ013>016-019>022-027-251800-

SOUTHERN UTAH

CITY           SKY/WX    TMP DP  RH WIND       PRES   REMARKS
BRYCE CANYON   SUNNY     46  25  43 NE12      30.14S
CEDAR CITY     SUNNY     48  31  51 N7        30.12S
MILFORD        SUNNY     50  36  58 N12       30.13S
ST GEORGE      SUNNY     59  30  33 CALM      30.06S
HANKSVILLE     SUNNY     54  30  40 CALM      30.12F
BLANDING         N/A     54  26  33 SW6       30.16S

$$

REGIONAL REPORTS     COLORADO/ARIZONA

CITY           SKY/WX    TMP DP  RH WIND       PRES   REMARKS
CRAIG, CO      PTSUNNY   48  31  51 N5        30.14F
GRAND JUNCTION SUNNY     54  32  43 W5        30.09F
RIFLE, CO      SUNNY     50  31  48 N3        30.11F
MONTROSE, CO   SUNNY     49  28  44 CALM      30.12F
CORTEZ, CO     SUNNY     55  15  20 CALM      30.08S
PAGE, AZ       SUNNY     59  28  30 NE5       30.07S
GRAND CANYON   SUNNY     54  21  27 SE7       30.11S
KINGMAN, AZ    MOSUNNY   65  29  25 N10       30.01S
FLAGSTAFF, AZ  SUNNY     54  15  21 NE9       30.10S

$$

REGIONAL REPORTS    NEVADA/IDAHO/WYOMING

CITY           SKY/WX    TMP DP  RH WIND       PRES   REMARKS
LAS VEGAS, NV  MOSUNNY   69  29  22 NE9       30.00F
ELY, NY        SUNNY     43  27  53 CALM      30.16F
ELKO, NV       CLOUDY    49  33  54 SW6       30.16R
POCATELLO, ID  MOSUNNY   52  34  50 N3        30.16S
BURLEY, ID     SUNNY     51  36  56 VRB5      30.14R
FORT BRIDGER,    N/A     43  35  73 W10       30.19S
EVANSTON, WY   CLOUDY    39  32  76 CALM      30.16F
ROCK SPRINGS,  CLOUDY    40  33  76 W7        30.14F

$$



USA.gov is the U.S. government's official web portal to all federal, state and local government web resources and services.